User: anonymous   Login
Location: Unspecified
(0.0000°N, 0.0000°E)
Time: 00:16:33
(UTC+00:00)
Language:

MAROC-TUBSAT - Orbit

View from above orbital plane
View from above orbital plane
View from above satellite
View from above satellite

Ground track
Ground track

The orbit data is extracted from the following two-line orbital elements,

1 27004U 01056D   18048.95373590 -.00000034 +00000-0 +10203-4 0  9995
2 27004 099.3892 187.4488 0020580 059.9172 048.0773 13.70127059809701
Epoch (UTC): 17 February 2018 22:53:22
Eccentricity: 0.0020580
inclination: 99.3892°
perigee height: 984 km
apogee height: 1014 km
right ascension of ascending node: 187.4488°
argument of perigee: 59.9172°
revolutions per day: 13.70127059
mean anomaly at epoch: 48.0773°
orbit number at epoch: 80970

The dashed part of the orbit path shows where the satellite is in the earth's shadow,  

DLR